Regional Weather Roundup
Issued by NWS

Home | Current Version | Previous Version | Text Only | Print | Product List | Glossary Off
Versions: 1 2 3 4 5 6 7 8 9 10 11 12 13 14 15 16 17 18 19 20 21 22 23 24 25 26 27 28 29 30 31 32 33 34 35 36 37 38 39 40 41 42 43 44 45 46 47 48 49 50

000
ASUS45 KSLC 231410
RWRUT

UTAH REGIONAL WEATHER ROUNDUP
NATIONAL WEATHER SERVICE SALT LAKE CITY UT
800 AM MDT WED JUL 23 2014

UTZ001>011-023>025-231500-

NORTHERN UTAH

CITY           SKY/WX    TMP DP  RH WIND       PRES   REMARKS
HILL AFB       NOT AVBL
LOGAN          NOT AVBL
OGDEN          SUNNY     73  37  27 S10       30.15R
PROVO AIRPORT  MOSUNNY   70  39  32 CALM      30.20R
SALT LAKE CITY MOSUNNY   79  38  22 SE12      30.12R
VERNAL         SUNNY     67  38  34 W3        30.29R
WENDOVER       SUNNY     73  28  19 NE5       30.13R
HEBER CITY     MOSUNNY   61  43  51 CALM      30.30S
WEST JORDAN    SUNNY     84  46  26 SE15      30.17R

$$

UTZ012>022-026-027-231500-

SOUTHERN UTAH

CITY           SKY/WX    TMP DP  RH WIND       PRES   REMARKS
BRYCE CANYON   MOSUNNY   61  37  41 W6        30.47R
CEDAR CITY     MOSUNNY   61  38  42 CALM      30.28R
MILFORD        SUNNY     65  38  36 S8        30.22R
MOAB/CYNLANDS  SUNNY     84  43  23 CALM      30.20R
PRICE          MOSUNNY   80  19  10 NE3       30.33R
ST GEORGE      MOSUNNY   79  28  15 CALM      30.10R
KANAB            N/A     66  39  37 NE3       30.28R

$$

REGIONAL REPORTS     COLORADO/ARIZONA

CITY           SKY/WX    TMP DP  RH WIND       PRES   REMARKS
CRAIG, CO      SUNNY     56  43  61 CALM      30.38R
GRAND JUNCTION SUNNY     79  34  19 SE9       30.26R
RIFLE          SUNNY     67  40  37 CALM      30.35R
MONTROSE       MOSUNNY   72  46  39 SE5       30.37R
CORTEZ         SUNNY     76  44  32 CALM      30.38R
PAGE, AZ       MOSUNNY   85  43  22 S5        30.19R
GRAND CANYON   PTSUNNY   67  43  41 NE3       30.39R
KINGMAN        SUNNY     78  37  22 CALM      30.11R
FLAGSTAFF      SUNNY     56  43  61 CALM      30.43R

$$

REGIONAL REPORTS    NEVADA/IDAHO/WYOMING

CITY           SKY/WX    TMP DP  RH WIND       PRES   REMARKS
LAS VEGAS, NV  SUNNY     86  31  13 S6        29.96R
ELY            SUNNY     58  22  24 S9        30.30R
ELKO           SUNNY     62  43  49 CALM      30.19R
POCATELLO, ID  SUNNY     70  47  43 SW8       30.18R
BURLEY         MOSUNNY   68  48  48 S7        30.14R
EVANSTON, WY   SUNNY     64  30  27 S7        30.38R
ROCK SPRINGS   MOSUNNY   67  23  19 E6        30.36S

$$



USA.gov is the U.S. government's official web portal to all federal, state and local government web resources and services.